Location: Spor
(46.2167°N, 11.0500°E)
Time: 19:53:00
(UTC+00:00)

USA 229 - Pass Details

Date: 07 June 2020
Orbit: 980 x 1233 km, 63.4° (Epoch: 24 June)

Event Time Altitude Azimuth Distance (km) Brightness Sun altitude
Rises 01:07:19 0° 320° (NW) 3,956 7.0 -16.4°
Reaches altitude 10° 01:09:57 10° 318° (NW) 3,029 6.3 -16.2°
Maximum altitude 01:17:13 74° 236° (SW) 1,229 3.8 -15.6°
Drops below altitude 10° 01:24:49 10° 153° (SSE) 3,162 5.9 -15.0°
Sets 01:27:37 0° 151° (SSE) 4,139 6.5 -14.7°
